Location: Karaa?a�
(36.7158°N, 30.4165°E)
Time: 01:20:47
(UTC+00:00)

Resurs 01 Rocket - Pass Details

Date: 09 April 2020
Orbit: 634 x 644 km, 98.0° (Epoch: 06 June)

Event Time Altitude Azimuth Distance (km) Brightness Sun altitude
Exits shadow 17:40:11 20° 81° (E) 1,478 3.0 -14.7°
Maximum altitude 17:40:53 21° 68° (ENE) 1,447 3.0 -14.9°
Drops below altitude 10° 17:44:09 10° 20° (NNE) 2,029 4.2 -15.5°
Sets 17:46:48 0° 5° (N) 2,944 5.3 -16.0°
